This is the latest recevied weather packets stored in our database for station/object KN4DS-3. If no packets are shown the sender has not sent any weather packets the latest 10 day(s).
| Time | Temp. | Humidity | Pressure | Rain* | Wind** | Luminosity | Snow |
|---|---|---|---|---|---|---|---|
| 1777998604 | 27.22° C | 44% | 1017.1 hPa | 0 mm | - | - | - |
| 1777998304 | 26.67° C | 47% | 1017.2 hPa | 0 mm | - | - | - |
| 1777998004 | 26.67° C | 46% | 1017.2 hPa | 0 mm | - | - | - |
| 1777997704 | 26.11° C | 47% | 1017.2 hPa | 0 mm | - | - | - |
| 1777997404 | 25.56° C | 47% | 1017.4 hPa | 0 mm | - | - | - |
| 1777997104 | 26.11° C | 48% | 1017.3 hPa | 0 mm | - | - | - |
| 1777996804 | 25.56° C | 46% | 1017.4 hPa | 0 mm | - | - | - |
| 1777996504 | 25.56° C | 49% | 1017.5 hPa | 0 mm | - | - | - |
| 1777996205 | 25.56° C | 50% | 1017.4 hPa | 0 mm | - | - | - |
| 1777995904 | 25° C | 52% | 1017.3 hPa | 0 mm | - | - | - |
| 1777995605 | 25° C | 52% | 1017.3 hPa | 0 mm | - | - | - |
| 1777995304 | 25° C | 52% | 1017.5 hPa | 0 mm | - | - | - |
| 1777995004 | 25° C | 51% | 1017.5 hPa | 0 mm | - | - | - |
| 1777994704 | 24.44° C | 52% | 1017.5 hPa | 0 mm | - | - | - |
| 1777994404 | 24.44° C | 56% | 1017.5 hPa | 0 mm | - | - | - |
| 1777994104 | 23.89° C | 57% | 1017.4 hPa | 0 mm | - | - | - |
| 1777993804 | 23.33° C | 57% | 1017.4 hPa | 0 mm | - | - | - |
| 1777993504 | 22.78° C | 59% | 1017.3 hPa | 0 mm | - | - | - |
| 1777993204 | 22.78° C | 59% | 1017.3 hPa | 0 mm | - | - | - |
| 1777992904 | 22.22° C | 59% | 1017.3 hPa | 0 mm | - | - | - |
| 1777992604 | 22.22° C | 59% | 1017.4 hPa | 0 mm | - | - | - |
| 1777992304 | 21.67° C | 62% | 1017.4 hPa | 0 mm | - | - | - |
| 1777992004 | 21.67° C | 63% | 1017.4 hPa | 0 mm | - | - | - |
| 1777991704 | 21.67° C | 64% | 1017.5 hPa | 0 mm | - | - | - |
| 1777991404 | 21.11° C | 64% | 1017.4 hPa | 0 mm | - | - | - |
* Rain latest hour (hover to see other rain measurements)
** Current wind speed in m/s (hover to see current wind gust speed)